Location: Ash Swamp
(41.5170°N, 74.6157°W)
Time: 17:19:30
(UTC+00:00)

MOS 1-B Rocket - Pass Details

Date: 14 July 2020
Orbit: 891 x 1605 km, 99.1° (Epoch: 04 August)

Event Time Altitude Azimuth Distance (km) Brightness Sun altitude
Rises 03:43:16 0° 14° (NNE) 4,173 8.1 -24.1°
Reaches altitude 10° 03:46:05 10° 16° (NNE) 3,101 7.3 -24.3°
Maximum altitude 03:53:03 81° 104° (ESE) 1,059 4.0 -24.7°
Enters shadow 03:54:39 53° 182° (S) 1,230 4.1 -24.8°
